Tracking 19254 objects as of 18-Oct-2018
HD Live streaming from Space Station
objects crossing your sky now

INS-1A

Track INS-1A now!
10-day predictions


NORAD ID: 41949
Int'l Code: 2017-008B
Perigee: 497.7 km
Apogee: 508.6 km
Inclination: 97.4 °
Period: 94.5 minutes
Semi major axis: 6874 km
RCS: Unknown
Launch date: February 15, 2017
Source: India (IND)
Launch site: SRIHARIKOTA (SRI)
aabbcc
Your satellite tracking list
Your tracking list is empty




NASA's NSSDC Master Catalog

Two Line Element Set (TLE):
1 41949U 17008B   18290.87837062 +.00001435 +00000-0 +63563-4 0  9994
2 41949 097.4339 353.7088 0007954 283.0074 077.0275 15.23254307092738
Source of the keplerian elements: AFSPC